Location: Lake_James_State_Park
(35.7270°N, 81.9020°W)
Time: 15:38:58
(UTC-05:00)

Daily predictions for brighter satellites

Satellite Brightness Start Highest point End
(mag) Time Altitude Azimuth Time Altitude Azimuth Time Altitude Azimuth
Cosmos 2279 Rocket 4.4 17:30:58 10° SSE 17:36:50 44° E 17:42:43 10° NNE
Lacrosse 5 2.2 17:33:21 10° NW 17:38:23 72° SW 17:43:24 10° SSE
Cosmos 1607 4.4 17:34:24 10° NNW 17:40:35 44° NE 17:46:40 10° SE
YAOGAN 1 3.6 17:37:51 10° ESE 17:41:17 24° ENE 17:44:44 10° NNE
BREEZE-M DEB (TANK) 2.4 17:40:45 10° NW 17:42:59 60° NE 17:47:54 10° ESE
CSL-04 Debris 4.2 17:38:48 10° SSE 17:44:05 60° ENE 17:49:24 10° N
Delta 2 Rocket 4.0 17:48:45 10° W 17:54:20 84° S 17:59:19 10° E
NOSS 2-3 (D) 4.2 17:50:23 10° SW 17:54:53 63° NW 18:00:00 10° NNE
COSMO-SKYMED 1 3.4 17:52:48 10° NE 17:56:40 30° E 18:00:30 10° SSE
Cosmos 990 Rocket 3.9 17:54:02 10° SSW 17:59:09 82° ESE 18:04:20 10° NNE
EO 1 Del DPAF 4.4 17:56:08 10° NE 17:59:17 24° E 18:02:24 10° SSE
Atlas Centaur 2 2.6 17:56:06 10° WSW 18:00:51 40° S 18:04:45 10° ESE
CZ-2C R/B 4.4 17:56:18 10° SSW 18:01:00 35° W 18:05:45 10° NNW
Cosmos 2150 Rocket 4.1 17:57:50 10° SSW 18:03:16 80° ESE 18:08:45 10° NNE
USA 116 3.1 18:01:27 10° NNE 18:04:41 65° E 18:07:45 10° S
Cosmos 1975 Rocket 3.2 18:00:52 10° S 18:05:19 81° W 18:09:49 10° N
Okean 1 3.6 18:01:48 10° SSW 18:05:45 69° W 18:09:42 10° N
Meteor 1-28 Rocket 3.3 18:03:44 10° N 18:07:29 77° WNW 18:11:14 10° SSW
CSL-04 Rocket 4.0 18:03:04 10° S 18:08:25 72° WSW 18:13:53 10° NNW
Cosmos 1743 3.1 18:04:52 10° N 18:08:32 39° E 18:12:11 10° SSE
ATLAS CENTAUR R/B 3.3 18:05:57 10° NW 18:09:40 35° WSW 18:13:35 10° S
SPOT 3 Rocket 4.3 18:07:04 10° SE 18:11:33 30° ENE 18:16:01 10° N
Cosmos 1697 Rocket 4.2 18:09:50 10° SE 18:12:59 15° E 18:14:04 15° E
SMAP 3.3 18:08:59 10° S 18:13:36 73° WSW 18:18:16 10° NNW
SJ 16-02 2.6 18:11:18 10° SSE 18:14:40 22° E 18:16:15 18° ENE
FENGYUN 3A 4.3 18:11:15 10° SE 18:16:00 33° ENE 18:20:44 10° N
Cosmos 1655 Rocket 4.0 18:10:22 10° N 18:16:45 77° E 18:23:09 10° S
CZ-3A R/B 4.2 18:07:29 10° NW 18:17:48 60° WSW 18:23:24 10° SSE
CZ-2C R/B 3.9 18:13:43 10° N 18:18:23 81° WNW 18:23:07 10° SSW
Cosmos 1975 2.9 18:16:14 10° N 18:20:17 80° W 18:24:19 10° S
CZ-4 R/B 1.4 18:16:50 10° S 18:20:38 79° WSW 18:24:32 10° NNW
ATLAS 2AS CENTAUR R/B 3.1 18:13:41 10° SSW 18:21:20 89° NW 18:29:29 10° NNE
ALOS 2.8 18:18:54 10° SE 18:23:09 36° ENE 18:27:25 10° N
SKYMED 3 4.5 18:22:28 10° NNE 18:26:49 71° ESE 18:31:08 10° S
ISS -1.4 18:25:55 10° N 18:26:30 11° NNE 18:26:30 11° NNE
METEOR-M 4.0 18:24:05 10° SSE 18:29:24 74° ENE 18:34:44 10° N
Landsat 4 3.9 18:28:18 10° N 18:32:07 72° WNW 18:35:54 10° SSW
Cosmos 2219 3.2 18:27:12 10° NNW 18:32:50 90° WSW 18:38:27 10° SSE
Cosmos 2227 Rocket 2.8 18:27:57 10° N 18:33:02 33° ENE 18:38:05 10° SE
Abrixas rocket 3.8 18:30:38 10° W 18:33:25 26° NNW 18:34:47 19° NNE
Cosmos 1536 Rocket 3.5 18:29:08 10° S 18:33:26 58° E 18:37:25 12° NNE
Cosmos 1271 Rocket 2.5 18:30:36 10° N 18:34:23 77° E 18:38:12 10° SSE
CZ-4 R/B 4.5 18:32:46 10° S 18:36:55 82° W 18:41:04 10° NNW
ATLAS 3B R/B 3.0 18:31:09 10° NNW 18:37:16 37° NE 18:41:12 20° ESE
NOAA 12 4.2 18:32:25 10° SSE 18:37:31 51° ENE 18:42:36 10° N
Cosmos 2266 Rocket 4.0 18:35:27 10° N 18:41:24 55° E 18:47:24 10° SSE
Meteor 2-9 Rocket 4.1 18:37:20 10° N 18:42:47 57° E 18:48:04 10° SSE
NOSS 3-4 (A) 4.3 18:37:41 10° SSE 18:42:51 28° ESE 18:44:08 26° E
NOSS 3-4 (C) 4.3 18:37:49 10° SSE 18:42:58 28° ESE 18:44:11 26° E
Cosmos 158 Rocket 4.3 18:38:36 10° N 18:43:23 39° ENE 18:48:01 10° SE
SKYMED 2 3.8 18:40:28 10° N 18:44:47 70° WNW 18:49:05 10° SSW
Meteor 1-13 Rocket 4.3 18:39:17 10° S 18:44:48 80° W 18:50:28 10° N
Cosmos 1025 Rocket 4.5 18:43:18 10° SSE 18:45:14 21° SE 18:45:14 21° SE
Cosmos 389 Rocket 3.5 18:43:53 10° NNW 18:47:15 47° W 18:50:34 10° S
Cosmos 1980 Rocket 3.9 18:47:38 10° SE 18:49:26 16° SE 18:49:26 16° SE
ERS-2 2.4 18:53:03 10° S 18:56:41 69° WSW 19:00:21 10° NNW
Cosmos 2297 Rocket 2.3 18:55:15 10° N 19:00:43 47° ENE 19:02:12 38° ESE
Cosmos 1125 Rocket 3.4 18:55:44 10° SSW 19:01:02 83° ESE 19:03:51 29° NNE
Meteor 2-4 Rocket 3.8 18:55:35 10° SSW 19:01:06 75° W 19:06:31 10° N
Meteor 1-15 Rocket 4.5 18:56:00 10° N 19:01:43 49° ENE 19:07:24 10° SSE
DELTA 2 R/B (1) 3.7 18:57:48 10° W 19:03:20 65° N 19:04:55 45° NE
PSLV R/B 4.0 19:04:01 10° WSW 19:06:23 47° W 19:06:23 47° W
Cosmos 1048 Rocket 4.0 19:09:10 10° N 19:14:29 60° ENE 19:14:29 60° ENE
Gbstr 26 Del rocket 4.3 19:08:16 10° SW 19:16:13 68° SE 19:18:24 47° ENE
Hubble Space Telescope 2.1 19:14:37 10° WSW 19:18:15 30° S 19:18:16 30° S
CENTAUR R/B 4.5 19:16:33 10° N 19:20:03 18° NNE 19:20:03 18° NNE
Cosmos 2369 4.0 19:17:36 10° SSW 19:23:13 66° WNW 19:25:45 33° N
Cosmos 2278 4.0 19:20:13 10° SSW 19:25:50 66° WNW 19:28:07 36° N
Cosmos 1656 3.9 19:24:23 10° SSW 19:29:57 67° WNW 19:31:36 45° N
USA 238 DEB 3.7 19:25:16 10° NNW 19:32:26 88° ENE 19:36:06 32° SSE
USA 238 3.7 19:25:22 10° NNW 19:32:31 87° ENE 19:36:03 34° SSE
Delta 2 Rocket 4.1 19:31:49 10° W 19:36:19 64° W 19:36:19 64° W
FengYun 1-2 T 4.2 19:34:57 10° S 19:40:32 80° WSW 19:46:12 10° NNW
GOES 2 Rocket 4.5 19:40:11 10° WSW 19:44:38 40° S 19:44:38 40° S
Atlas Centaur 2 3.4 19:45:21 10° WSW 19:47:40 25° SW 19:47:40 25° SW
Cosmos 1241 Rocket 4.5 19:46:16 10° SSW 19:52:37 77° WNW 19:52:37 77° WNW
SJ 16-02 3.2 19:49:23 10° SW 19:53:05 26° WNW 19:53:19 26° WNW
Cosmos 1697 Rocket 3.1 19:50:46 10° SSW 19:55:52 59° W 19:55:52 59° W
Cosmos 2082 4.4 19:55:54 10° NNW 20:00:44 51° W 20:00:44 51° W
NOSS 3-2 (A) 4.0 19:57:02 10° NNW 20:03:56 73° N 20:03:56 73° N
Cosmos 2227 Rocket 3.9 20:12:06 10° NW 20:16:57 30° WSW 20:21:21 12° SSW
ATLAS 3B R/B 3.8 20:21:55 10° NW 20:27:50 37° WSW 20:28:37 35° SW
Cosmos 1980 Rocket 4.3 20:29:33 10° SW 20:31:17 20° SW 20:31:17 20° SW
Cosmos 2297 Rocket 4.4 20:40:19 10° NW 20:44:14 20° W 20:44:14 20° W
